Hourly Weather Suhaya Vyazovka

Today, 17 January, Sunday

Time Temperature Precipitation Wind Pressure Humidity
00:00 -17°C° 0.1 mm 8 mps 749 mmHg 91%
01:00 -17°C° 0.1 mm 8 mps 750 mmHg 91%
02:00 -18°C° 0.1 mm 7 mps 750 mmHg 90%
03:00 -18°C° 0 mm 6 mps 750 mmHg 92%
04:00 -18°C° 0 mm 6 mps 751 mmHg 92%
05:00 -20°C° 0 mm 7 mps 751 mmHg 92%
06:00 -21°C° 0 mm 7 mps 751 mmHg 93%
07:00 -21°C° 0 mm 6 mps 752 mmHg 93%
08:00 -22°C° 0 mm 6 mps 752 mmHg 93%
09:00 -22°C° 0 mm 5 mps 753 mmHg 93%
10:00 -21°C° 0 mm 5 mps 753 mmHg 92%
11:00 -21°C° 0 mm 5 mps 754 mmHg 91%
12:00 -20°C° 0 mm 4 mps 754 mmHg 91%
13:00 -20°C° 0 mm 4 mps 754 mmHg 92%
14:00 -21°C° 0 mm 3 mps 755 mmHg 93%
15:00 -22°C° 0 mm 3 mps 755 mmHg 94%
16:00 -21°C° 0 mm 2 mps 755 mmHg 94%
17:00 -23°C° 0 mm 2 mps 756 mmHg 95%
18:00 -23°C° 0 mm 2 mps 757 mmHg 95%
19:00 -24°C° 0 mm 2 mps 757 mmHg 95%
20:00 -24°C° 0 mm 2 mps 757 mmHg 95%
21:00 -21°C° 0 mm 1 mps 758 mmHg 95%
22:00 -22°C° 0 mm 1 mps 758 mmHg 96%
23:00 -22°C° 0 mm 0 mps 758 mmHg 96%

Tomorrow, 18 January, Monday

Time Temperature Precipitation Wind Pressure Humidity
00:00 -22°C° 0 mm 0 mps 758 mmHg 97%
01:00 -22°C° 0 mm 0 mps 759 mmHg 96%
02:00 -22°C° 0 mm 0 mps 759 mmHg 96%
03:00 -22°C° 0 mm 1 mps 759 mmHg 95%
04:00 -21°C° 0 mm 1 mps 759 mmHg 95%
05:00 -21°C° 0 mm 1 mps 759 mmHg 96%
06:00 -24°C° 0 mm 2 mps 759 mmHg 96%
07:00 -24°C° 0 mm 2 mps 759 mmHg 96%
08:00 -24°C° 0 mm 2 mps 759 mmHg 96%
09:00 -25°C° 0 mm 3 mps 760 mmHg 96%
10:00 -24°C° 0 mm 3 mps 759 mmHg 95%
11:00 -23°C° 0 mm 3 mps 759 mmHg 94%
12:00 -22°C° 0 mm 3 mps 759 mmHg 94%
13:00 -22°C° 0 mm 3 mps 759 mmHg 94%
14:00 -22°C° 0 mm 3 mps 758 mmHg 94%
15:00 -21°C° 0 mm 3 mps 758 mmHg 94%
16:00 -21°C° 0.2 mm 3 mps 758 mmHg 94%
17:00 -22°C° 0.2 mm 4 mps 757 mmHg 95%
18:00 -22°C° 0.2 mm 4 mps 757 mmHg 95%
19:00 -22°C° 0.5 mm 4 mps 757 mmHg 95%
20:00 -20°C° 0.5 mm 4 mps 756 mmHg 95%
21:00 -20°C° 0.5 mm 4 mps 756 mmHg 96%
22:00 -20°C° 0.6 mm 4 mps 756 mmHg 96%
23:00 -20°C° 0.6 mm 4 mps 755 mmHg 95%

Day after tomorrow, 19 January, Tuesday

Time Temperature Precipitation Wind Pressure Humidity
00:00 -19°C° 0.6 mm 4 mps 755 mmHg 95%
01:00 -19°C° 0.9 mm 4 mps 755 mmHg 95%
02:00 -19°C° 0.9 mm 4 mps 754 mmHg 95%
03:00 -18°C° 0.9 mm 4 mps 754 mmHg 95%
04:00 -18°C° 0.4 mm 4 mps 754 mmHg 95%
05:00 -18°C° 0.4 mm 4 mps 754 mmHg 95%
06:00 -17°C° 0.4 mm 3 mps 754 mmHg 95%
07:00 -18°C° 0.1 mm 3 mps 754 mmHg 95%
08:00 -18°C° 0.1 mm 3 mps 754 mmHg 95%
09:00 -19°C° 0.1 mm 3 mps 754 mmHg 96%
10:00 -18°C° 0 mm 3 mps 754 mmHg 95%
11:00 -18°C° 0 mm 3 mps 754 mmHg 95%
12:00 -18°C° 0 mm 3 mps 754 mmHg 95%
13:00 -19°C° 0 mm 3 mps 754 mmHg 95%
14:00 -19°C° 0 mm 3 mps 754 mmHg 95%
15:00 -19°C° 0 mm 3 mps 754 mmHg 95%
16:00 -21°C° 0 mm 3 mps 754 mmHg 96%
17:00 -22°C° 0 mm 3 mps 755 mmHg 97%
18:00 -23°C° 0 mm 3 mps 755 mmHg 98%
19:00 -24°C° 0 mm 3 mps 755 mmHg 98%
20:00 -25°C° 0 mm 3 mps 755 mmHg 98%
21:00 -24°C° 0 mm 2 mps 755 mmHg 98%
22:00 -26°C° 0 mm 3 mps 756 mmHg 98%
23:00 -26°C° 0 mm 3 mps 756 mmHg 97%

20 January, Wednesday

Time Temperature Precipitation Wind Pressure Humidity
00:00 -26°C° 0 mm 3 mps 756 mmHg 97%
01:00 -26°C° 0 mm 3 mps 756 mmHg 98%
02:00 -26°C° 0 mm 2 mps 757 mmHg 98%
03:00 -26°C° 0 mm 2 mps 757 mmHg 98%
04:00 -25°C° 0 mm 2 mps 757 mmHg 98%
05:00 -25°C° 0 mm 2 mps 757 mmHg 98%
06:00 -26°C° 0 mm 3 mps 757 mmHg 97%
07:00 -26°C° 0 mm 3 mps 758 mmHg 97%
08:00 -25°C° 0 mm 3 mps 758 mmHg 97%
09:00 -25°C° 0 mm 3 mps 758 mmHg 96%
10:00 -25°C° 0 mm 3 mps 758 mmHg 96%
11:00 -24°C° 0 mm 3 mps 758 mmHg 95%
12:00 -23°C° 0 mm 3 mps 758 mmHg 94%
13:00 -24°C° 0 mm 3 mps 758 mmHg 94%
14:00 -24°C° 0 mm 3 mps 758 mmHg 94%
15:00 -25°C° 0 mm 3 mps 758 mmHg 95%
16:00 -25°C° 0 mm 3 mps 759 mmHg 95%
17:00 -26°C° 0 mm 3 mps 759 mmHg 95%
18:00 -27°C° 0 mm 3 mps 759 mmHg 95%
19:00 -26°C° 0 mm 3 mps 760 mmHg 95%
20:00 -25°C° 0 mm 3 mps 760 mmHg 96%
21:00 -25°C° 0 mm 3 mps 760 mmHg 96%
22:00 -25°C° 0 mm 3 mps 760 mmHg 96%
23:00 -26°C° 0 mm 3 mps 760 mmHg 96%

21 January, Thursday

Time Temperature Precipitation Wind Pressure Humidity
00:00 -27°C° 0 mm 3 mps 760 mmHg 97%
01:00 -27°C° 0 mm 3 mps 760 mmHg 96%
02:00 -27°C° 0 mm 3 mps 760 mmHg 96%
03:00 -27°C° 0 mm 3 mps 761 mmHg 96%
04:00 -27°C° 0 mm 3 mps 761 mmHg 96%
05:00 -27°C° 0 mm 3 mps 761 mmHg 97%
06:00 -27°C° 0 mm 3 mps 761 mmHg 97%
07:00 -26°C° 0 mm 3 mps 761 mmHg 97%
08:00 -25°C° 0 mm 3 mps 761 mmHg 98%
09:00 -24°C° 0 mm 3 mps 761 mmHg 98%
10:00 -24°C° 0 mm 4 mps 761 mmHg 96%
11:00 -22°C° 0 mm 4 mps 761 mmHg 95%
12:00 -20°C° 0 mm 4 mps 761 mmHg 94%
13:00 -19°C° 0 mm 4 mps 761 mmHg 94%
14:00 -19°C° 0 mm 4 mps 761 mmHg 94%
15:00 -18°C° 0 mm 4 mps 761 mmHg 94%
16:00 -19°C° 0 mm 4 mps 761 mmHg 94%
17:00 -19°C° 0 mm 4 mps 761 mmHg 94%
18:00 -19°C° 0 mm 4 mps 761 mmHg 94%
19:00 -19°C° 0 mm 4 mps 761 mmHg 94%
20:00 -20°C° 0 mm 4 mps 761 mmHg 94%
21:00 -20°C° 0 mm 4 mps 761 mmHg 94%
22:00 -19°C° 0 mm 4 mps 761 mmHg 94%
23:00 -19°C° 0 mm 4 mps 761 mmHg 93%

22 January, Friday

Time Temperature Precipitation Wind Pressure Humidity
00:00 -19°C° 0 mm 4 mps 761 mmHg 93%
01:00 -18°C° 0 mm 4 mps 760 mmHg 93%
02:00 -18°C° 0 mm 4 mps 760 mmHg 93%
03:00 -18°C° 0 mm 4 mps 760 mmHg 93%
04:00 -17°C° 0.4 mm 4 mps 759 mmHg 94%
05:00 -17°C° 0.4 mm 4 mps 759 mmHg 94%
06:00 -18°C° 0.4 mm 5 mps 758 mmHg 94%
07:00 -16°C° 0.2 mm 4 mps 758 mmHg 94%
08:00 -16°C° 0.2 mm 4 mps 758 mmHg 94%
09:00 -15°C° 0.2 mm 3 mps 758 mmHg 94%
10:00 -14°C° 0 mm 3 mps 758 mmHg 93%
11:00 -14°C° 0 mm 3 mps 758 mmHg 93%
12:00 -13°C° 0 mm 3 mps 758 mmHg 93%
13:00 -12°C° 0 mm 2 mps 758 mmHg 93%
14:00 -12°C° 0 mm 2 mps 758 mmHg 93%
15:00 -11°C° 0 mm 1 mps 758 mmHg 94%
16:00 -11°C° 0 mm 1 mps 759 mmHg 94%
17:00 -11°C° 0 mm 1 mps 759 mmHg 94%
18:00 -11°C° 0 mm 1 mps 759 mmHg 94%
19:00 -10°C° 0.2 mm 1 mps 759 mmHg 95%
20:00 -12°C° 0.2 mm 2 mps 759 mmHg 95%
21:00 -10°C° 0.2 mm 2 mps 759 mmHg 95%
22:00 -10°C° 0.3 mm 2 mps 758 mmHg 95%
23:00 -10°C° 0.3 mm 3 mps 758 mmHg 95%
Show more